STARLINK-32796 (62739 NORAD) Tracking and Keplerian Element Data

This shows tracking and keplerian element data for the satellite.

Feedback or suggestion? Click here.




ElementValue
Catalog62739
NameSTARLINK-32796
Epoch Orbit221
Epoch Day35.25001157
Epoch Year2025
RAAN253.8752
Inclination42.9997
Eccentricity0.0001812
Argument of Perigee268.4979
Mean Anonmoly96.8603
Mean Motion15.64342452
Decay Rate-0.01476458
L11 62739U 25014E 25035.25001157 -.01476458 00000+0 -16756-1 0 9997
L22 62739 42.9997 253.8752 0001812 268.4979 96.8603 15.64342452 2211



Live tracking and technical data element details for STARLINK-32796 (NORAD 62739). STARLINK-32796 can be tracked NOW for your location showing map with azimuth and elevation plus other details from your city location.







IsCatalogInMostPopularTable: catalog: 62739, numindb: 195
Update: records affected: 1



GetName: 62739 STARLINK-32796

Hit Count: updated at: Mon, 17 Nov 2025 19:05:51 GMT